Location: East Irvine
(33.6759°N, 117.7598°W)
Time: 22:15:49
(UTC+00:00)

Aureole 3 Rocket - Pass Details

Date: 15 November 2025
Orbit: 398 x 1690 km, 82.5° (Epoch: 13 December)

Event Time Altitude Azimuth Distance (km) Brightness Sun altitude
Rises 02:11:18 0° 197° (SSW) 2,572 6.6 -17.4°
Reaches altitude 10° 02:13:36 10° 205° (SSW) 1,582 5.6 -17.8°
Maximum altitude 02:16:45 42° 277° (W) 601 3.5 -18.5°
Drops below altitude 10° 02:19:39 10° 351° (N) 1,450 5.0 -19.1°
Enters shadow 02:20:15 - 354° (N) 1,705 5.3 -19.2°
